Tracking 31027 objects as of 19-Jul-2025
HD Live streaming from Space Station
objects crossing your sky now

BREEZE-M DEB

Track BREEZE-M DEB now!
10-day predictions


NORAD ID: 39599
Int'l Code: 2008-011DK
Perigee: 659.0 km
Apogee: 25,895.8 km
Inclination: 49.6 °
Period: 456.8 minutes
Semi major axis: 19648 km
RCS: Unknown
Launch date: March 14, 2008
Source: Commonwealth of Independent States (former USSR) (CIS)
Launch site: TYURATAM MISSILE AND SPACE COMPLEX (TTMTR)

Note: This is SATELLITE DEBRIS
Your satellite tracking list
ATLAS 2A CENTAUR R/B
Track 1 satellite(s)




NASA's NSSDC Master Catalog

Two Line Element Set (TLE):
1 39599U 08011DK  25196.90552000  .00001028  00000-0  11145-1 0  9993
2 39599  49.5638 107.9069 6422097  89.5077 338.3727  3.15218226134001
Source of the keplerian elements: AFSPC